Location: Huppendorf
(49.9333°N, 11.1500°E)
Time: 10:02:58
(UTC+00:00)

STARLINK-1053 - Pass Details

Date: 27 February 2020
Orbit: 548 x 551 km, 53.0° (Epoch: 30 March)

Event Time Altitude Azimuth Distance (km) Brightness Sun altitude
Rises 19:14:23 0° 252° (WSW) 2,712 8.1 -23.3°
Reaches altitude 10° 19:16:37 10° 254° (WSW) 1,821 7.0 -23.6°
Enters shadow 19:20:27 72° 292° (WNW) 580 3.7 -24.2°
